Ann Arbor, MI

8:33 PM EDT on May 23, 2018 (GMT -0400)
Ann Arbor Municipal

Weather History for KARB - August, 2012

Change the Weather History Date:

Sunday, August 26, 2012

  Actual Average Record
Temperature  
Mean Temperature 74 °F -  
Max Temperature 91 °F 77 °F 91 °F (2012)
Min Temperature 57 °F 54 °F 41 °F (2017)
Cooling Degree Days 8    
Growing Degree Days 24 (Base 50)    
Moisture  
Dew Point 60 °F    
Average Humidity 79    
Maximum Humidity 100    
Minimum Humidity 35    
Precipitation  
Precipitation 0.00 in - - ()
Sea Level Pressure  
Sea Level Pressure 30.10 in    
Wind  
Wind Speed 2 mph (SSE)    
Max Wind Speed 16 mph    
Max Gust Speed 26 mph    
Visibility 5 miles    
Events Fog , Rain    
Averages and records for this station are not official NWS values.
T = Trace of Precipitation, MM = Missing Value Source: NWS Daily Summary

Daily Weather History Graph

Daily Weather History Graph

Search for Another Location

Airport or City:

Astronomy

Aug. 26, 2012 Rise Set
Actual Time 6:54 AM EDT 8:17 PM EDT
Civil Twilight 6:25 AM EDT 8:47 PM EDT
Nautical Twilight 5:50 AM EDT 9:22 PM EDT
Astronomical Twilight 5:12 AM EDT 9:59 PM EDT
Moon 4:50 PM EDT (8/26) 1:31 AM EDT (8/26)
Length of Visible Light 14h 21m
Length of Day
13h 23m
Waxing Gibbous, 73% of the Moon is Illuminated
Aug 26
Waxing Gibbous
Aug 31
Full
Sep 8
Last Quarter
Sep 15
New
Sep 22
First Quarter

Hourly Weather History & Observations

Time (EDT) Temp. Heat Index Dew Point Humidity Pressure Visibility Wind Dir Wind Speed Gust Speed Precip Events Conditions
12:32 AM 62.6 °F - 60.8 °F 94% 30.12 in 2.0 mi Calm Calm - N/A   Clear
12:53 AM 63.0 °F - 62.1 °F 97% 30.10 in 3.0 mi Calm Calm - N/A   Clear
1:53 AM 63.0 °F - 61.0 °F 93% 30.10 in 3.0 mi Calm Calm - N/A   Clear
1:56 AM 62.6 °F - 60.8 °F 94% 30.12 in 0.8 mi Calm Calm - N/A   Mist
2:12 AM 60.8 °F - 57.2 °F 88% 30.12 in 0.2 mi Calm Calm - N/A Fog Fog
2:26 AM 62.6 °F - 60.8 °F 94% 30.12 in 0.2 mi Calm Calm - N/A Fog Fog
2:50 AM 62.6 °F - 60.8 °F 94% 30.12 in 2.0 mi Calm Calm - N/A   Partly Cloudy
2:53 AM 62.1 °F - 60.1 °F 93% 30.10 in 5.0 mi Calm Calm - N/A   Partly Cloudy
3:20 AM 60.8 °F - 59.0 °F 94% 30.12 in 1.2 mi Calm Calm - N/A   Clear
3:27 AM 60.8 °F - 59.0 °F 94% 30.12 in 0.8 mi Calm Calm - N/A   Clear
3:31 AM 62.6 °F - 60.8 °F 94% 30.11 in 1.5 mi Calm Calm - N/A   Clear
3:35 AM 60.8 °F - 59.0 °F 94% 30.12 in 3.0 mi Calm Calm - N/A   Clear
3:48 AM 60.8 °F - 59.0 °F 94% 30.11 in 2.5 mi Calm Calm - N/A   Clear
3:53 AM 61.0 °F - 59.0 °F 93% 30.10 in 2.5 mi Calm Calm - N/A   Clear
4:03 AM 60.8 °F - 59.0 °F 94% 30.11 in 6.0 mi Calm Calm - N/A   Clear
5:20 AM 64.4 °F - 60.8 °F 88% 30.12 in 2.0 mi Calm Calm - N/A   Clear
5:44 AM 62.6 °F - 60.8 °F 94% 30.12 in 2.5 mi Calm Calm - N/A   Clear
5:51 AM 62.6 °F - 60.8 °F 94% 30.12 in 5.0 mi Calm Calm - N/A   Clear
6:53 AM 60.1 °F - 57.9 °F 93% 30.13 in 4.0 mi Calm Calm - N/A   Clear
7:11 AM 57.2 °F - 57.2 °F 100% 30.14 in 1.8 mi Calm Calm - N/A   Clear
7:21 AM 60.8 °F - 59.0 °F 94% 30.15 in 1.2 mi Calm Calm - N/A   Clear
7:29 AM 59.0 °F - 57.2 °F 94% 30.15 in 0.8 mi Calm Calm - N/A   Clear
7:35 AM 60.8 °F - 59.0 °F 94% 30.15 in 1.5 mi Calm Calm - N/A   Clear
7:37 AM 60.8 °F - 59.0 °F 94% 30.15 in 3.0 mi Calm Calm - N/A   Clear
8:53 AM 71.1 °F - 61.0 °F 70% 30.14 in 9.0 mi South 4.6 mph - N/A   Clear
9:53 AM 75.9 °F - 60.1 °F 58% 30.13 in 10.0 mi South 4.6 mph - N/A   Clear
10:53 AM 80.1 °F 81.2 °F 62.1 °F 54% 30.13 in 10.0 mi South 5.8 mph - N/A   Clear
11:53 AM 84.0 °F 84.5 °F 62.1 °F 47% 30.12 in 10.0 mi SSE 4.6 mph - N/A   Clear
12:53 PM 89.1 °F 89.0 °F 61.0 °F 39% 30.10 in 10.0 mi Variable 6.9 mph - N/A   Clear
1:53 PM 90.0 °F 89.1 °F 59.0 °F 35% 30.08 in 10.0 mi South 8.1 mph 18.4 mph N/A   Clear
4:53 PM 87.1 °F 87.5 °F 62.1 °F 43% 30.02 in 10.0 mi SE 10.4 mph - N/A   Scattered Clouds
5:53 PM 86.0 °F 86.3 °F 62.1 °F 44% 30.01 in 10.0 mi SSE 16.1 mph 19.6 mph N/A   Scattered Clouds
6:53 PM 84.0 °F 84.5 °F 62.1 °F 47% 30.01 in 10.0 mi SSE 9.2 mph - N/A   Clear
7:53 PM 80.1 °F 81.1 °F 61.0 °F 52% 30.01 in 10.0 mi SE 8.1 mph - N/A   Clear
8:53 PM 78.1 °F - 61.0 °F 56% 30.00 in 10.0 mi SE 6.9 mph - N/A   Clear
9:53 PM 77.0 °F - 63.0 °F 62% 30.02 in 10.0 mi SSE 5.8 mph - N/A   Partly Cloudy
10:53 PM 77.0 °F - 64.0 °F 64% 30.03 in 10.0 mi SSW 11.5 mph 26.5 mph N/A   Overcast
11:53 PM 73.0 °F - 66.9 °F 81% 30.01 in 7.0 mi Calm Calm - 0.00 in Rain Light Rain